Regional Weather Roundup
Issued by NWS Portland, ME

Home | Current Version | Previous Version | Text Only | Print | Product List | Glossary On
Versions: 1 2 3 4 5 6 7 8 9 10 11 12 13 14 15 16 17 18 19 20 21 22 23 24 25 26 27 28 29 30 31 32 33 34 35 36 37 38 39 40 41 42 43 44 45 46 47 48 49 50
000
ASUS41 KGYX 182210
RWRGYX
WEATHER ROUNDUP FOR MAINE AND NEW HAMPSHIRE
NATIONAL WEATHER SERVICE GRAY ME
500 PM EST SAT NOV 18 2017

MEZ002-005-006-010-012-015-018-020-021-024-026-027-029-182300-
MAINE

CITY           SKY/WX    TMP DP  RH WIND       PRES   REMARKS
PORTLAND       CLOUDY    39  23  52 VRB3      29.74F
SANFORD          N/A     36  26  67 CALM      29.72F
WISCASSET      CLOUDY    41  28  60 CALM      29.76F
ROCKLAND       CLOUDY    40  26  57 CALM      29.77F
FRYEBURG       CLOUDY    37  19  48 CALM      29.70F
LEWISTONAUBURN CLOUDY    37  28  70 S5        29.73F
AUGUSTA        CLOUDY    37  16  42 SE7       29.73F
WATERVILLE     CLOUDY    36  18  48 VRB3      29.68F
BANGOR         CLOUDY    36  20  52 S5        29.76F
GREENVILLE     NOT AVBL
MILLINOCKET    CLOUDY    32  21  64 CALM      29.76R
HOULTON        CLOUDY    31  22  69 CALM      29.73F
PRESQUE ISLE   CLOUDY    28  22  78 E5        29.74F
FRENCHVILLE    CLOUDY    22  19  89 E6        29.70F
CARIBOU        CLOUDY    28  20  71 E5        29.73F
$$

NHZ002-005-008-009-011-012-014-182300-
NEW HAMPSHIRE

CITY           SKY/WX    TMP DP  RH WIND       PRES   REMARKS
PORTSMOUTH     CLOUDY    41  22  46 CALM      29.70F
ROCHESTER      LGT RAIN  38  25  59 CALM      29.71F
NASHUA         CLOUDY    42  28  57 CALM      29.70F
MANCHESTER     CLOUDY    41  24  51 SE6       29.68F
CONCORD        CLOUDY    38  24  57 E5        29.69F
LACONIA        CLOUDY    36  24  62 N3        29.68F
PLYMOUTH       CLOUDY    34  24  67 CALM      29.68F
BERLIN         CLOUDY    33  23  66 N5        29.62F
WHITEFIELD     CLOUDY    32  24  72 NW3       29.60F
JAFFREY        LGT RAIN  38  34  85 CALM      29.66F
KEENE          LGT RAIN  37  26  64 CALM      29.67F
LEBANON        CLOUDY    34  22  61 CALM      29.63F
MT WASHINGTON  CLOUDY    27  19  74 SW49G58     N/A  WCI   7
$$

VTZ005-007-008-182300-
VERMONT

CITY           SKY/WX    TMP DP  RH WIND       PRES   REMARKS
ST JOHNSBURY     N/A     33  22  63 MISG      29.61F
MONTPELIER     CLOUDY    33  20  58 S3        29.62F
BURLINGTON     CLOUDY    40  20  44 S9        29.55F
$$

MAZ007-012-024-CTZ003-RIZ002-NYZ038-NYZ072-182300-
SOUTHERN NEW ENGLAND AND NY

CITY           SKY/WX    TMP DP  RH WIND       PRES   REMARKS
BOSTON         LGT RAIN  44  38  79 E7        29.71F
WORCESTER      LGT RAIN  38  32  79 CALM      29.66F
NANTUCKET      CLOUDY    52  49  89 S13       29.74F
PROVIDENCE     CLOUDY    53  44  71 S13       29.70F
HARTFORD       CLOUDY    37  28  70 NE7       29.66F
ALBANY         CLOUDY    43  32  65 S15G22    29.59F
NEW YORK CITY  LGT RAIN  51  41  68 S5        29.64F
$$

ANZ081-ANZ082-ANZ150-NHZ014-MEZ023>029-182300-
COASTAL MARINE OBSERVATIONS

STATION/POSITION TIME  TEMP    WIND        PRES    WAVE
                       AIR SEA DIR/SP/G            HT/PER
                 (UTC) (F)     (DEG/KT/KT) (MB)    (FT/S)
MOUNT DESERT ROC 2200   43     160/ 14/ 16 1008.7F
MATINICUS ROCK   2100   42     190/  9/ 10 1007.9F
ISLE OF SHOALS   2100   44     200/ 11/ 12 1007.2S
JEFFREYS LEDGE   2136      52                N/A     3/ 4
GEORGES BANK BUO 2050   50 54              1011.2    7/ 7
$$

.............KEY..............
   WCI - WIND CHILL
   TC  - TEMPERATURE IN CELSIUS
   VSB - VISIBILITY IN MILES
   HX  - HEAT INDEX
   FAIR- INDICATES FEW OR NO CLOUDS BELOW 12,000 FT, WITH NO
         SIGNIFICANT WEATHER AND/OR OBSTRUCTIONS TO VISIBILITY.





USA.gov is the U.S. government's official web portal to all federal, state and local government web resources and services.